Погода в Длинной

Россия / Курская область     52°04′02″N   36°56′53″E
темп.,
°C
ветер,
м/с
пор.,
м/с
влажн.,
%
обл.,
%
осадки,
мм/ч
давл.,
гПа
погр.,
м
3 марта, ср
ср300:00+1ссз71289100 0.3 1014805
03:000ссз7128999 0.3 1015766
06:00−3сз6149250 0.0 1017515
09:00−3ссз6139060 0.0 1019682
12:00−2ссз6108360 0.0 1021984
15:000сз598130 0.0 1021789
18:00−2з511890 0.0 1020256
21:00−2з613921 0.0 1020390
4 марта, чт
чт400:000з6128767 0.0 1018753
03:00−3зюз5129364 0.0 1017299
06:00−3зюз713914 0.0 1014322
09:00−2зюз816872 0.0 1012465
12:00+1зюз814844 0.0 1010623
15:00+1зюз7149313 0.0 1007628
18:00+1зюз8139476 0.0 1005646
21:00+2зюз6149688 0.0 1004497
5 марта, пт
пт500:00+2зюз61396100 0.1 1003494
03:00+1з51098100 0.4 1003406
06:00−1зсз51093100 0.1 1005459
09:00−2сз479499 0.2 1008476
12:00−2ссв238888 0.0 1009390
15:00−1с238394 0.1 1011550
18:00−2с1288100 0.0 101231
21:00−3с1187100 0.0 101422
6 марта, сб
сб600:00−4ссв3692100 0.0 1015228
03:00−6ссв3588100 0.0 1016189
06:00−6ссв1289100 0.0 101546
09:00−5юз118274 0.0 101690
12:00−2з46713 0.0 1016914
15:00−4зсз7107134 0.3 10161111
18:00−6сз7118471 0.1 10171035
21:00−7ссз5108467 0.1 1020572
7 марта, вс
вс700:00−8зсз36870 0.0 1021198
03:00−8з49830 0.0 1020297
06:00−7зюз612760 0.0 1018446
09:00−5юз9166445 0.0 1015835
12:00−3зюз111860100 0.0 10111136
15:00−1зюз121966100 0.0 10071353
18:00−1зюз101970100 0.0 10041284
21:00−1зюз11207298 0.0 10041109